RH
100 100 100 95 100 100 100 100 100 100 100 99 100 99 97 94 77 70 54 57 100 84 61 64 66 45 33 32 32 32 33 28 22 19 16 17 20 24 42 45 34 20 20 24
100 100 100 100 99 96 98 98 99 100 100 100 100 100 99 89 70 68 82 91 100 100 98 91 66 61 48 38 31 32 32 33 30 26 19 17 33 43 43 46 33 25 29 39
97 100 100 100 99 94 90 82 79 74 84 93 91 95 94 89 95 89 90 85 93 100 100 100 91 72 65 56 44 32 36 31 30 30 25 22 21 25 32 40 40 32 40 42
100 100 100 100 100 100 97 96 86 72 71 74 83 78 90 97 100 90 92 99 90 80 70 95 100 91 90 81 62 46 40 38 29 31 28 25 24 24 29 32 46 50 49 59
98 100 100 100 100 100 100 100 95 98 93 86 92 79 83 95 100 96 93 79 78 69 72 80 73 82 90 83 64 51 49 50 36 33 32 30 27 23 26 32 34 48 56 67
100 100 100 100 100 100 100 100 100 91 86 77 97 72 62 92 95 91 92 71 68 59 56 68 91 76 80 74 78 71 61 59 49 41 35 33 29 26 24 31 36 39 63 82
100 100 100 100 100 100 100 92 91 94 98 88 76 59 54 80 52 41 44 46 48 41 60 88 76 92 86 81 76 87 77 61 56 46 40 37 37 31 27 34 40 38 53 74
96 100 99 100 98 94 100 100 84 50 43 41 44 43 47 43 39 30 27 28 32 35 46 55 63 80 81 82 71 84 82 68 67 57 54 46 42 37 42 65 50 50 73 80
40 43 47 59 61 52 47 56 84 100 85 57 48 40 28 33 21 20 19 18 23 26 31 41 43 49 58 66 66 81 78 81 73 74 63 55 51 58 80 83 90 92 88 90
72 70 88 64 58 80 100 100 95 82 60 47 31 17 14 15 13 10 8 8 11 18 26 34 43 42 44 49 56 77 80 80 67 83 71 64 65 70 73 72 75 75 77 90
79 74 83 99 100 100 90 71 63 75 64 42 30 34 4 6 7 8 5 3 5 8 10 24 36 45 38 44 51 62 73 81 75 82 68 80 84 59 63 79 76 88 96 84
90 100 100 92 82 65 66 75 77 80 71 38 27 21 12 5 4 2 2 2 2 4 11 16 28 45 50 47 50 61 70 83 96 83 76 87 75 92 87 84 94 94 87 83
100 94 83 73 69 78 85 93 79 73 85 73 34 15 10 5 4 3 2 1 2 3 7 14 25 47 51 50 49 57 73 84 100 85 82 90 63 68 85 95 96 91 86 84
90 77 81 70 68 91 95 100 96 80 96 88 52 22 10 6 4 3 2 2 2 6 10 16 27 47 52 51 52 61 76 96 93 89 92 89 57 74 90 89 88 81 77 72
77 87 94 85 77 76 99 80 94 72 83 97 77 39 10 8 5 4 3 3 3 5 11 19 31 45 60 54 58 70 87 95 89 86 100 80 74 73 82 93 95 93 81 59
90 96 85 98 89 84 85 82 100 97 100 86 99 58 24 10 8 6 6 8 6 6 13 22 34 48 62 56 67 78 79 80 88 98 94 81 76 77 82 85 83 88 86 78
93 83 84 100 91 78 81 100 100 100 100 100 99 83 38 20 15 13 15 14 13 14 18 27 40 56 59 66 76 74 76 95 100 100 96 96 92 90 87 88 93 100 100 98
96 89 90 78 92 70 100 100 100 100 100 100 90 95 84 39 36 39 32 28 25 25 28 34 44 53 65 80 78 87 99 100 100 100 99 93 99 100 100 100 100 100 100 100
96 88 95 77 66 74 90 99 96 87 92 96 100 100 100 90 76 58 48 36 31 30 31 36 43 53 68 84 98 100 100 92 98 100 95 99 100 100 100 100 100 100 94 61
99 91 82 71 77 80 70 100 92 100 99 74 80 100 100 100 99 80 65 49 47 54 68 76 90 100 100 100 100 100 100 99 84 92 99 100 100 100 100 100 99 67 62 59
93 96 81 80 83 77 78 99 100 100 100 100 100 76 100 100 100 100 84 80 76 99 90 97 100 100 100 99 95 93 82 78 96 100 100 100 100 96 80 66 72 72 68 68
100 87 72 74 79 79 83 90 99 100 99 100 100 100 100 89 100 100 100 91 91 90 91 100 100 100 99 89 83 80 86 95 100 97 86 72 72 79 86 85 80 75 69 69
99 93 86 72 99 80 89 99 91 100 95 100 100 100 100 94 87 100 100 100 100 95 87 92 81 84 87 92 95 100 97 88 83 86 89 90 89 87 84 78 74 72 69 71
91 87 68 69 79 92 90 94 90 92 98 99 100 100 100 95 74 93 100 100 100 100 96 91 90 86 78 77 82 85 87 85 86 90 91 86 80 76 72 69 65 63 62 62
92 90 82 67 66 73 75 70 78 79 91 100 100 88 100 100 91 77 88 99 100 100 100 100 98 91 91 88 88 87 84 89 89 84 90 94 93 92 90 83 78 78 75 70
94 97 88 77 68 64 63 64 70 78 82 94 97 69 84 97 81 90 91 88 87 84 89 91 88 85 84 83 84 94 100 100 100 100 100 100 97 94 88 82 70 58 50 47
Wind_Speed
88 89 91 89 85 84 85 85 82 82 80 78 76 74 72 72 72 72 67 65 62 61 63 61 60 59 56 57 57 59 62 63 62 60 61 58 60 60 61 65 68 69 68 65
85 89 87 85 85 84 83 83 82 81 82 80 79 74 76 76 72 73 73 71 70 67 66 66 64 64 62 58 58 58 59 63 62 59 58 58 56 58 60 63 67 70 69 66
77 89 85 83 82 82 82 81 82 83 83 82 82 76 84 78 78 78 80 78 77 73 69 68 67 66 67 63 58 57 58 58 61 61 58 57 58 58 59 62 65 68 69 69
72 81 83 82 82 83 82 82 83 84 84 85 85 82 85 85 85 85 85 86 82 80 79 76 74 71 67 67 63 55 56 57 58 58 59 59 58 58 59 61 64 67 68 68
66 76 80 81 82 81 83 83 85 87 89 87 87 92 78 88 90 91 90 87 88 88 84 83 81 77 72 68 69 65 57 57 57 57 56 56 58 58 60 61 63 67 67 67
60 64 72 76 79 82 82 82 83 85 86 85 86 98 82 86 94 95 96 96 95 95 91 87 88 85 78 74 69 69 63 61 60 56 54 53 55 58 60 62 64 66 67 69
59 64 67 70 73 75 75 75 78 81 84 84 92 102 93 92 101 100 101 102 103 100 97 96 93 90 84 78 72 71 69 66 63 58 52 51 49 53 56 63 66 67 68 68
51 56 62 66 68 69 72 74 77 75 77 76 80 90 87 91 96 92 93 96 103 105 105 102 98 91 86 82 73 73 72 64 63 57 52 48 50 51 51 59 65 68 67 69
47 47 47 45 45 46 42 49 62 72 79 83 83 90 86 96 92 88 81 82 94 100 100 102 101 99 94 86 78 73 75 67 61 54 49 48 49 48 48 59 64 65 67 68
22 20 22 25 27 36 45 53 61 71 75 82 80 80 78 75 76 75 73 77 96 100 95 92 92 97 95 92 83 78 75 68 60 53 49 49 49 49 54 58 65 67 68 68
19 19 22 24 28 37 43 45 44 48 59 68 66 67 52 47 51 61 67 69 79 96 95 94 87 86 85 84 80 77 74 68 60 55 51 52 51 53 54 57 58 65 66 67
16 16 19 25 28 27 25 23 32 39 51 49 49 56 54 47 46 51 55 58 60 77 90 85 86 79 73 71 68 69 68 65 57 54 52 53 52 49 49 52 54 58 66 69
17 19 22 19 14 13 19 29 35 38 43 43 43 38 41 41 40 38 41 46 45 50 66 81 80 75 66 59 58 61 61 60 57 51 50 53 53 52 48 47 48 54 63 69
16 19 15 12 8 11 20 28 33 39 43 44 43 36 29 28 28 27 27 34 39 39 57 71 72 73 62 53 49 53 56 55 50 47 50 52 51 49 49 49 50 52 58 64
15 11 11 11 8 14 17 24 32 37 45 46 44 38 23 19 16 13 17 22 33 38 50 65 66 66 56 50 46 48 49 47 46 48 48 49 48 49 49 51 52 55 56 61
14 10 7 11 14 11 13 22 29 37 44 46 48 34 31 20 10 1 8 13 22 31 47 60 62 60 53 47 46 44 42 41 45 41 45 48 47 48 50 52 52 51 52 55
13 10 8 7 6 6 12 22 29 41 46 44 45 45 34 21 13 12 11 10 16 28 42 50 52 52 48 44 44 41 40 41 41 46 45 44 46 49 51 54 56 55 56 57
13 14 6 2 2 7 12 15 22 32 40 43 41 45 44 25 18 19 14 11 13 21 31 37 40 41 43 43 42 42 43 44 43 44 44 45 48 51 54 57 57 57 58 56
19 17 14 9 3 3 8 14 22 31 38 38 35 43 39 31 18 15 12 11 13 19 25 28 32 36 39 40 42 43 42 45 43 43 44 44 46 49 52 55 56 55 54 52
21 19 14 10 10 9 12 16 22 31 40 40 28 36 33 32 18 13 12 12 13 20 26 29 33 36 38 41 43 43 42 52 44 46 43 44 45 51 50 51 51 47 42 42
21 23 17 16 14 12 11 16 22 26 36 36 43 30 23 23 23 12 11 15 16 17 25 30 34 36 40 42 41 41 41 42 44 47 46 47 47 46 42 36 35 36 41 45
27 21 20 18 17 16 15 19 24 26 27 32 37 33 22 10 12 14 7 9 13 17 22 27 32 35 34 33 33 35 35 39 42 43 38 33 29 28 29 33 37 41 46 50
27 27 25 23 24 20 23 24 27 30 30 32 31 25 14 8 6 10 10 8 10 13 17 19 20 23 25 27 28 28 27 25 23 22 22 24 26 30 34 39 43 47 51 56
30 30 26 25 25 26 29 26 27 27 27 28 18 12 9 7 5 3 10 12 14 14 14 14 15 16 17 17 17 17 16 15 17 19 23 28 32 37 41 46 50 55 59 65
33 32 31 30 28 28 28 26 25 22 20 19 17 11 9 6 5 7 4 10 13 15 16 15 14 13 13 12 12 13 15 18 21 24 28 33 38 43 48 53 57 62 66 70
35 34 31 31 31 30 27 25 21 20 14 13 12 5 3 6 7 6 9 6 4 6 8 9 9 9 9 11 13 15 18 22 26 30 33 37 43 49 54 58 62 65 67 69
Wind_Direction
232 234 235 238 240 241 243 245 248 251 252 255 257 259 259 260 260 258 258 264 265 265 266 268 270 269 271 266 260 258 259 260 260 260 260 259 255 252 251 251 253 255 257 258
231 232 235 237 239 241 242 245 248 250 252 253 255 255 257 256 259 262 259 260 263 262 262 263 266 268 272 272 265 259 259 258 258 259 259 259 256 252 252 250 252 253 255 255
232 233 235 237 240 241 244 247 249 250 251 253 252 251 254 256 258 259 260 258 259 259 258 261 262 265 270 272 271 261 260 260 259 259 258 259 258 256 254 254 253 253 253 255
232 233 235 238 240 243 247 249 250 252 253 253 255 253 255 256 257 257 257 260 258 260 262 261 262 261 262 266 268 269 264 264 261 262 261 259 259 257 254 254 251 251 251 252
233 234 235 239 243 246 249 251 252 254 256 257 260 258 253 257 258 256 256 256 258 254 256 257 258 259 261 261 267 270 271 268 264 262 261 260 261 258 255 254 253 251 251 251
232 235 238 242 245 249 251 253 255 257 260 261 261 262 254 257 256 255 256 254 253 255 253 252 256 256 257 259 262 266 268 268 265 264 263 263 263 261 257 254 254 252 250 249
231 237 240 244 247 250 253 256 260 261 264 266 264 263 265 259 256 254 251 251 252 251 251 253 253 255 256 255 259 261 263 268 263 264 267 265 269 269 263 253 252 253 252 251
232 236 240 243 247 251 257 262 266 267 268 266 265 267 265 262 256 254 252 250 250 249 249 250 251 251 254 254 255 255 260 261 259 260 265 268 271 274 269 252 249 249 251 252
238 238 243 246 248 253 261 269 272 274 275 275 271 273 273 268 266 261 253 250 248 245 245 245 247 249 250 251 253 253 257 255 253 256 263 268 272 277 256 248 247 247 249 251
214 219 241 248 262 272 273 274 276 279 282 282 283 277 274 269 267 264 254 244 243 243 238 241 241 245 245 247 248 250 254 255 252 255 261 266 270 272 260 256 249 248 250 252
213 228 253 261 265 270 279 283 293 302 294 288 289 283 277 278 271 261 261 260 248 243 241 234 233 239 241 243 244 245 248 249 249 254 260 265 270 269 262 257 255 250 252 252
211 229 246 258 278 286 296 322 334 331 321 306 294 288 293 290 278 266 258 253 242 243 239 238 233 233 236 239 239 237 242 243 244 256 259 261 266 258 261 260 260 257 255 253
215 238 254 266 301 310 326 339 338 348 341 337 330 301 289 286 280 273 259 246 240 237 231 228 230 227 231 234 236 232 236 241 249 252 254 259 262 259 257 259 264 264 260 257
230 253 272 285 304 322 330 333 342 356 360 354 342 325 301 290 286 274 251 244 228 217 220 217 222 223 227 231 233 231 238 241 245 247 251 260 262 254 257 260 266 270 268 265
247 263 251 292 287 316 307 333 350 355 10 8 357 339 321 315 303 273 238 231 215 204 208 211 214 220 223 225 228 227 229 234 240 244 253 258 255 255 256 265 270 275 275 271
250 243 305 280 306 311 347 359 3 10 13 9 15 6 353 354 360 180 172 187 197 201 199 206 210 217 222 224 228 231 230 233 238 248 249 257 257 260 266 271 277 280 279 275
241 241 356 282 329 296 8 11 21 17 17 11 16 23 18 15 37 79 103 149 180 191 197 203 209 215 222 225 229 230 225 230 237 239 256 256 260 265 270 274 277 279 280 278
241 262 282 312 307 32 14 19 17 6 13 17 17 30 27 41 62 79 98 121 156 179 194 201 207 213 218 224 226 219 224 233 242 250 259 266 267 269 272 275 278 280 281 279
244 264 280 278 223 356 12 360 356 2 13 17 19 31 33 45 75 82 100 127 153 173 182 188 196 202 206 210 214 221 230 237 248 257 264 266 268 271 274 275 278 278 277 278
243 251 269 263 267 302 337 343 351 0 5 6 23 26 31 41 61 87 92 114 141 160 167 175 184 194 203 212 219 224 214 239 249 256 262 270 270 273 275 275 274 277 277 279
248 253 264 270 271 291 338 328 336 344 358 8 3 14 18 29 41 68 107 125 144 161 175 184 193 204 212 220 227 231 233 241 250 259 269 271 272 272 272 271 275 279 279 279
248 251 259 272 282 293 306 315 321 327 339 349 347 348 3 21 45 58 93 164 159 172 183 196 206 215 222 228 232 237 246 255 260 265 266 263 264 268 274 278 279 278 277 277
245 247 256 266 275 287 289 298 305 312 324 339 343 339 348 333 20 119 114 133 169 204 203 212 220 225 233 243 247 251 246 244 243 248 259 270 278 281 279 277 278 280 281 283
247 246 251 258 268 280 284 291 303 311 321 336 344 342 341 307 268 284 143 143 152 161 173 188 199 201 206 204 207 216 231 247 263 271 275 275 277 280 283 284 286 288 289 290
249 251 255 258 263 274 284 292 295 300 318 329 332 338 333 303 269 248 183 153 156 157 163 169 176 181 192 206 219 237 250 259 267 276 283 286 287 289 288 289 290 291 291 291
247 250 255 263 270 279 282 285 283 291 298 311 309 296 316 269 290 255 252 250 222 197 184 187 200 213 229 244 258 271 279 284 287 289 291 291 290 290 291 291 291 292 293 294